Terug naar catalogus

STARLINK-5043

ActiefCommunicatieVLEO
NORAD 53894·PAYLOAD·🇺🇸 United States

Gelanceerd Sep 24, 2022 vanaf Cape Canaveral Space Force Station

Loading…

Volgende Passages (komende 24 uur)

TLE

VersSource: CelesTrak SupGP

Epoch: Sep 15, 2026, 02:02 UTC

1 53894C 22119J   26258.08520833 -.00013871  00000+0 -44613-3 0  2586
2 53894  53.1588 171.7903 0001346  87.9467  65.6926 15.31703257    13

Volg STARLINK-5043 in realtime met AllMySat

Download on the App Store